DMSP 5D-2 F14 DEB, 62944

Orbit data source: Space-Track

DMSP 5D-2 F14 DEB, 62944 is space debris in SSO originally from a launch on Fri, 04 Apr 1997 UTC launched from the Air Force Western Test Range (AFWTR). Debris objects in space refer to the collection of defunct objects orbiting the Earth. Examples of debris include non-operational satellites, rocket bodies, and fragments generated from explosions, collisions, or faulty payload assembly.

Loading next visibility...
Identifier
62944, 1997-012Q
Orbit
SSO
Country
Flag of USUS
Related business
Manufacturer
LMT/EW
Mission
Spacecraft
Bus & Motor
Unknown
Mass
Unknown
Launch date (UTC)
1997-04-04 (29 years ago)
Launch vehicle
Unknown
Launch site
Air Force Western Test Range (AFWTR)
Object type
Payload
Rocket body
Debris
Shape & HBR
Unknown shape, 0.1 m
Radar Cross Section
Medium (>0.1 m² and <1 m²)

Expand to show TLE details & history
Last TLE update: 12 hours ago

TLE from 12 hours ago
0 DMSP 5D-2 F14 DEB
1 62944U 97012Q   26171.35324274  .00006018  00000-0  14127-2 0  9993
2 62944  98.0719 201.2182 0091197 270.2788  88.7958 14.52277418510325
Epoch: 2026-06-20T08:28Z
TLE epoch observation values (Epoch: 2026-06-20T08:28:40.172Z)
Latitude
-0.00008°
Longitude
165.48174°
Altitude
720.428 km
Speed
7.496 km/s
True Right ascension
13h 24m 52s
True Declination
0° 00' 00"
Sunlit
Object was in daylight at epoch
Visualization orbit readout
Latitude
Unknown
Longitude
Unknown
Altitude
Unknown
Speed
Unknown
Apparent Right ascension
Unknown
Apparent Declination
Unknown
Sunlit
N/A
Visualization observer readout
Local Sidereal Time
07:15:06
Azimuth
Unknown
Elevation
Unknown
Doppler factor
Unknown
Orbital elements
Apogee altitude
779.995 km
Perigee altitude
650.615 km
Semi-major axis
7,093.442 km
Eccentricity
0.00912
Inclination
98.0719°
RAAN
201.2182°
Arg. of periapsis
270.2788°
True anomaly
89.8408°
Mean anomaly
88.7958°
Eccentric anomaly
89.31828°
Mean motion
3.63293 °/min
Orbital period
99.09 mins
BSTAR
0.0014127
Loading maneuver chart data...
Computing Atmospheric mass density...

Documentation

Showing up to 5 results
|